Flag for US Virgin Islands Weather past 2 weeks in Christiansted, US Virgin Islands

Now
79 °F

Passing clouds.


Feels Like: 82 °F
Forecast: N/A
Wind: 10 mph from East

Location: Christiansted / Henry E. Rohlsen Airport - Saint Croix


UV Index: N/A

Visibility: 10 mi


Pressure: 30.05 "Hg

Humidity: 72%

Dew point: 69 °F

Location of ChristianstedLocation

Historic Weather in Christiansted

°F

Christiansted temperature yesterday

Maximum temperature yesterday: 85 °F (at 12:53 PM)
Minimum temperature yesterday: 75 °F (at 2:28 PM)
Average temperature yesterday: 79 °F

Past Weeks' High & Low Weather Summary

 TemperatureHumidityPressure
High87 °F (Apr 18, 11:53 AM)94% (Apr 19, 2:28 PM)30.14 "Hg (Apr 19, 2:28 PM)
Low70 °F (Apr 12, 4:53 AM)50% (Apr 12, 11:53 AM)29.90 "Hg (Apr 15, 3:53 PM)
Average80 °F70%30.03 "Hg
* Reported Apr 5 5:53 PM — Apr 20 5:53 PM, Christiansted, Weather by CustomWeather, © 2014

Note: Actual official high and low records may vary slightly from our data, if they occured in-between our weather recording intervals... More about our weather records

Advertising

Historic Weather Conditions — Data for Previous 24 hours

 ConditionsComfort  
Time TempWeatherWind HumidityBarometerVisibility
5:53 PM
Apr 20
82 °FPassing clouds.12 mph65%30.03 "Hg10 mi
4:53 PM83 °FSunny.15 mph63%30.02 "Hg10 mi
3:53 PM84 °FPassing clouds.15 mph61%30.02 "Hg10 mi
2:53 PM85 °FSunny.14 mph61%30.03 "Hg10 mi
1:53 PM86 °FScattered clouds.16 mph57%30.04 "Hg10 mi
12:53 PM86 °FScattered clouds.18 mph59%30.06 "Hg10 mi
11:53 AM85 °FPassing clouds.21 mph61%30.08 "Hg10 mi
10:53 AM84 °FScattered clouds.17 mph63%30.10 "Hg10 mi
9:53 AM83 °FScattered clouds.21 mph65%30.10 "Hg10 mi
8:53 AM82 °FScattered clouds.21 mph70%30.10 "Hg10 mi
7:53 AM77 °FRain. Scattered clouds.15 mph79%30.09 "Hg6 mi
5:53 AM78 °FPassing clouds.15 mph74%30.05 "Hg10 mi
4:53 AM78 °FPassing clouds.15 mph74%30.04 "Hg10 mi
3:53 AM79 °FPartly cloudy.15 mph69%30.03 "Hg10 mi
2:53 AM78 °FPassing clouds.16 mph71%30.03 "Hg10 mi
1:53 AM79 °FPassing clouds.15 mph69%30.04 "Hg10 mi
1:12 AM79 °FPartly cloudy.15 mph70%30.05 "Hg10 mi
12:53 AM78 °FPassing clouds.13 mph76%30.05 "Hg10 mi
12:11 AM79 °FPartly cloudy.12 mph74%30.06 "Hg10 mi
12:04 AM79 °FPartly cloudy.12 mph74%30.07 "Hg10 mi
11:53 PM
Apr 19
78 °FPassing clouds.12 mph76%30.06 "Hg10 mi
10:53 PM78 °FPassing clouds.13 mph74%30.07 "Hg10 mi
9:53 PM78 °FPassing clouds.15 mph76%30.06 "Hg10 mi
8:53 PM78 °FPartly cloudy.12 mph76%30.06 "Hg10 mi
Weather by CustomWeather, © 2014

See weather overview